Location: Warszawa
(52.2500°N, 21.0000°E)
Time: 21:41:48
(UTC+02:00)

AO-91 - Pass Details

Date: 25 April 2024
Orbit: 441 x 737 km, 97.6° (Epoch: 20 May)

Event Time Altitude Azimuth Distance (km) Brightness Sun altitude
Rises 22:37:42 0° 12° (NNE) 2,448 ? -19.6°
Reaches altitude 10° 22:39:43 10° 10° (N) 1,573 ? -19.7°
Maximum altitude 22:43:03 72° 286° (WNW) 478 ? -20.0°
Enters shadow 22:43:36 57° 226° (SW) 540 ? -20.0°
